User: anonymous   Login
Location: Dappach
(48.9767°N, 9.6998°E)
Time: 19:08:42
(UTC+00:00)
Language:

AQUA - Orbit

View from above orbital plane
View from above orbital plane
View from above satellite
View from above satellite

Ground track
Ground track

The orbit data is extracted from the following two-line orbital elements,

1 27424U 02022A   24207.50194455  .00002080  00000-0  44794-3 0  9994
2 27424  98.3318 157.0231 0001686  54.6544  55.7426 14.59521573182306
Epoch (UTC): 25 July 2024 12:02:48
Eccentricity: 0.0001686
inclination: 98.3318°
perigee height: 693 km
apogee height: 696 km
right ascension of ascending node: 157.0231°
argument of perigee: 54.6544°
revolutions per day: 14.59521573
mean anomaly at epoch: 55.7426°
orbit number at epoch: 18230

The dashed part of the orbit path shows where the satellite is in the earth's shadow,  

DLR